Date String (YYYY-MM-DD hh:mm:ss) UTC,Instrument flags,Ambient pressure (hPa),Sample flow (lpm),Bypass flow (lpm),Sample temperature (°C),Ambient temperature (°C),ASC tube jacket temperature (°C),LED temperature (°C),Box temperature (°C),Sample RH (%),Span deviation,Mass concentration (μg/m³),Mass concentration (μg/m³),Mass concentration (μg/m³)
DateTimeUTC,F1_M11,P_M11,Q1_M11,Q2_M11,T1_M11,T2_M11,T3_M11,T4_M11,T5_M11,U1_M11,ZSPAN_M11,X0_M11,X2_M11,X1_M11
2022-05-13 05:00:00,,0824.2,5.01,0.00,28.5,27.7,00.0,37.6,30.2,06.8,0000.0,0009.67,0002.63,0001.16
2022-05-13 05:01:00,,0824.2,5.00,0.00,28.5,27.7,00.0,37.6,30.2,06.8,0000.0,0010.30,0002.66,0001.15
2022-05-13 05:02:00,,0824.2,4.99,0.00,28.4,27.7,00.0,37.6,30.1,06.8,0000.0,0010.28,0002.66,0001.16
2022-05-13 05:03:00,,0824.2,5.01,0.00,28.4,27.7,00.0,37.6,30.2,06.8,0000.0,0010.31,0002.70,0001.17
2022-05-13 05:04:00,,0824.2,4.99,0.00,28.5,27.7,00.0,37.6,30.2,06.9,0000.0,0010.45,0002.60,0001.15
2022-05-13 05:05:00,,0824.3,5.01,0.00,28.5,27.8,00.0,37.6,30.2,07.1,0000.0,0010.60,0002.63,0001.14
2022-05-13 05:06:00,,0824.3,5.00,0.00,28.5,27.8,00.0,37.6,30.3,07.0,0000.0,0010.48,0002.70,0001.12
2022-05-13 05:07:00,,0824.4,5.01,0.00,28.5,27.8,00.0,37.5,30.3,07.0,0000.0,0009.89,0002.70,0001.10
2022-05-13 05:08:00,,0824.5,5.00,0.00,28.5,27.8,00.0,37.5,30.3,07.0,0000.0,0008.78,0002.64,0001.09
2022-05-13 05:09:00,,0824.3,5.00,0.00,28.5,27.8,00.0,37.5,30.3,06.8,0000.0,0008.74,0002.60,0001.07
2022-05-13 05:10:00,,0824.4,5.01,0.00,28.5,27.8,00.0,37.5,30.3,06.8,0000.0,0009.26,0002.62,0001.06
2022-05-13 05:11:00,,0824.3,5.00,0.00,28.5,27.9,00.0,37.5,30.3,06.9,0000.0,0009.75,0002.75,0001.07
2022-05-13 05:12:00,,0824.3,5.00,0.00,28.5,27.9,00.0,37.5,30.3,07.0,0000.0,0009.32,0002.77,0001.08
2022-05-13 05:13:00,,0824.3,5.00,0.00,28.5,27.9,00.0,37.5,30.3,07.0,0000.0,0009.25,0002.81,0001.07
2022-05-13 05:14:00,,0824.3,5.00,0.00,28.5,27.9,00.0,37.5,30.3,06.9,0000.0,0010.03,0002.87,0001.06
2022-05-13 05:15:00,,0824.5,5.00,0.00,28.6,27.9,00.0,37.5,30.3,06.9,0000.0,0010.20,0002.93,0001.07
2022-05-13 05:16:00,,0824.5,5.01,0.00,28.6,27.9,00.0,37.5,30.4,06.9,0000.0,0010.04,0002.93,0001.06
2022-05-13 05:17:00,,0824.6,4.99,0.00,28.6,27.9,00.0,37.5,30.4,07.0,0000.0,0009.94,0002.82,0001.05
2022-05-13 05:18:00,,0824.4,5.00,0.00,28.6,28.0,00.0,37.5,30.4,07.0,0000.0,0009.87,0002.79,0001.07
2022-05-13 05:19:00,,0824.3,5.00,0.00,28.6,28.0,00.0,37.6,30.4,07.0,0000.0,0009.74,0002.83,0001.09
2022-05-13 05:20:00,,0824.4,4.99,0.00,28.6,28.0,00.0,37.6,30.5,07.0,0000.0,0009.62,0002.80,0001.08
2022-05-13 05:21:00,,0824.4,5.00,0.00,28.6,28.1,00.0,37.6,30.5,07.0,0000.0,0008.92,0002.80,0001.08
2022-05-13 05:22:00,,0824.5,5.01,0.00,28.7,28.1,00.0,37.6,30.5,07.0,0000.0,0008.14,0002.66,0001.08
2022-05-13 05:23:00,,0824.5,4.99,0.00,28.7,28.1,00.0,37.6,30.5,07.0,0000.0,0008.00,0002.61,0001.08
2022-05-13 05:24:00,,0824.6,5.00,0.00,28.7,28.1,00.0,37.6,30.6,07.0,0000.0,0007.96,0002.59,0001.08
2022-05-13 05:25:00,,0824.6,5.01,0.00,28.7,28.1,00.0,37.6,30.6,07.1,0000.0,0007.28,0002.53,0001.08
2022-05-13 05:26:00,,0824.6,4.99,0.00,28.7,28.1,00.0,37.6,30.5,07.1,0000.0,0007.42,0002.46,0001.08
2022-05-13 05:27:00,,0824.6,4.99,0.00,28.7,28.1,00.0,37.6,30.6,07.1,0000.0,0007.48,0002.45,0001.08
2022-05-13 05:28:00,,0824.5,5.01,0.00,28.7,28.1,00.0,37.6,30.6,07.0,0000.0,0007.37,0002.44,0001.09
2022-05-13 05:29:00,,0824.6,4.99,0.00,28.7,28.1,00.0,37.6,30.6,07.1,0000.0,0007.05,0002.41,0001.07
2022-05-13 05:30:00,,0824.6,5.01,0.00,28.7,28.1,00.0,37.6,30.6,07.1,0000.0,0006.84,0002.41,0001.08
2022-05-13 05:31:00,,0824.6,4.99,0.00,28.8,28.1,00.0,37.7,30.5,07.0,0000.0,0006.91,0002.45,0001.08
2022-05-13 05:32:00,,0824.5,5.01,0.00,28.7,28.1,00.0,37.7,30.5,07.1,0000.0,0007.92,0002.49,0001.09
2022-05-13 05:33:00,,0824.4,4.99,0.00,28.7,28.0,00.0,37.7,30.4,07.1,0000.0,0008.41,0002.48,0001.09
2022-05-13 05:34:00,,0824.3,5.01,0.00,28.7,27.9,00.0,37.7,30.4,07.0,0000.0,0008.41,0002.49,0001.10
2022-05-13 05:35:00,,0824.5,4.99,0.00,28.7,27.9,00.0,37.7,30.4,07.1,0000.0,0009.05,0002.54,0001.10
2022-05-13 05:36:00,,0824.5,5.00,0.00,28.7,27.9,00.0,37.7,30.5,07.2,0000.0,0009.05,0002.55,0001.11
2022-05-13 05:37:00,,0824.6,5.01,0.00,28.7,27.9,00.0,37.7,30.5,07.1,0000.0,0008.77,0002.53,0001.11
2022-05-13 05:38:00,,0824.4,4.99,0.00,28.7,27.9,00.0,37.7,30.4,07.2,0000.0,0008.52,0002.63,0001.12
2022-05-13 05:39:00,,0824.3,5.02,0.00,28.6,27.9,00.0,37.7,30.4,07.2,0000.0,0009.15,0002.67,0001.12
2022-05-13 05:40:00,,0824.6,4.99,0.00,28.6,27.8,00.0,37.6,30.4,07.1,0000.0,0009.62,0002.72,0001.14
2022-05-13 05:41:00,,0824.6,5.01,0.00,28.6,27.9,00.0,37.6,30.4,07.0,0000.0,0010.21,0002.70,0001.13
2022-05-13 05:42:00,,0824.7,5.00,0.00,28.6,27.9,00.0,37.6,30.4,07.0,0000.0,0011.98,0002.73,0001.13
2022-05-13 05:43:00,,0824.8,4.99,0.00,28.6,27.9,00.0,37.6,30.4,07.0,0000.0,0011.75,0002.72,0001.13
2022-05-13 05:44:00,,0824.9,5.01,0.00,28.6,27.9,00.0,37.6,30.4,07.2,0000.0,0010.79,0002.74,0001.14
2022-05-13 05:45:00,,0824.9,4.99,0.00,28.7,28.0,00.0,37.6,30.5,07.2,0000.0,0010.75,0002.78,0001.13
2022-05-13 05:46:00,,0824.8,5.00,0.00,28.7,28.0,00.0,37.6,30.5,07.0,0000.0,0010.30,0002.73,0001.12
2022-05-13 05:47:00,,0824.7,5.01,0.00,28.7,28.0,00.0,37.6,30.5,07.0,0000.0,0009.95,0002.68,0001.12
2022-05-13 05:48:00,,0824.7,4.99,0.00,28.7,28.0,00.0,37.6,30.5,07.0,0000.0,0010.01,0002.67,0001.12
2022-05-13 05:49:00,,0824.7,4.99,0.00,28.7,28.0,00.0,37.6,30.5,07.1,0000.0,0010.34,0002.61,0001.10
2022-05-13 05:50:00,,0824.7,5.01,0.00,28.7,28.0,00.0,37.6,30.5,07.1,0000.0,0010.09,0002.62,0001.11
2022-05-13 05:51:00,,0824.6,5.00,0.00,28.7,28.0,00.0,37.6,30.5,07.1,0000.0,0009.62,0002.64,0001.12
2022-05-13 05:52:00,,0824.7,4.99,0.00,28.7,28.0,00.0,37.6,30.5,07.1,0000.0,0009.46,0002.66,0001.12
2022-05-13 05:53:00,,0824.6,5.01,0.00,28.7,28.0,00.0,37.6,30.5,07.1,0000.0,0007.46,0002.67,0001.11
2022-05-13 05:54:00,,0824.6,4.99,0.00,28.7,28.0,00.0,37.6,30.5,07.2,0000.0,0007.32,0002.60,0001.11
2022-05-13 05:55:00,,0824.6,5.02,0.00,28.7,28.0,00.0,37.6,30.4,07.3,0000.0,0007.54,0002.66,0001.12
2022-05-13 05:56:00,,0824.7,4.99,0.00,28.7,28.0,00.0,37.6,30.5,07.2,0000.0,0007.97,0002.68,0001.12
2022-05-13 05:57:00,,0824.8,5.01,0.00,28.7,28.0,00.0,37.6,30.4,07.1,0000.0,0007.99,0002.67,0001.12
2022-05-13 05:58:00,,0824.6,4.99,0.00,28.6,27.9,00.0,37.6,30.4,07.1,0000.0,0008.45,0002.73,0001.13
2022-05-13 05:59:00,,0824.7,5.00,0.00,28.6,27.9,00.0,37.6,30.4,07.2,0000.0,0009.25,0002.78,0001.14
